Theta_e
310 310 314 318 322 324 328 331 331 331 331 330 330 330 330 328 328 326 326 326 325 324 324 324 324 324 323 323 323 322 321 321 320 319 317 317 312 312 310 308 305 302 301
311 310 310 311 315 320 323 327 330 331 331 331 330 330 330 329 328 327 326 325 325 325 324 324 324 323 323 323 322 321 320 320 319 317 312 311 308 308 306 303 302 301 301
311 310 310 309 310 315 319 322 324 327 329 330 330 329 328 328 328 327 326 326 325 325 324 323 323 323 322 321 321 319 320 319 318 313 311 306 303 302 300 299 300 297 296
309 309 309 310 309 309 312 319 322 324 326 327 328 329 329 328 328 327 326 326 325 324 324 323 323 323 322 320 319 319 319 317 315 309 306 303 301 298 298 299 296 293 293
305 306 307 308 308 308 308 311 318 323 324 325 326 328 328 329 327 327 326 325 325 324 324 324 323 323 322 321 320 318 317 313 309 303 301 298 297 296 297 296 293 292 291
302 303 304 304 304 306 306 307 312 318 322 324 323 324 326 327 327 327 326 325 324 323 321 321 322 322 320 320 319 318 318 314 306 303 299 297 297 297 296 294 292 290 290
299 300 300 301 301 302 304 304 305 310 314 319 320 321 322 323 323 324 324 324 322 321 320 321 320 319 318 316 314 312 311 310 309 308 302 300 299 299 296 292 291 291 292
297 298 298 298 298 299 300 302 303 304 306 313 316 318 319 320 321 322 322 322 321 321 320 320 319 318 315 312 309 306 305 303 302 303 302 302 300 298 296 294 292 291 289
294 295 295 295 296 296 297 298 301 301 301 305 312 315 315 317 318 319 319 318 317 317 318 317 315 314 312 307 305 302 299 297 296 297 298 298 296 294 292 292 291 288 286
291 292 292 293 294 294 295 296 298 299 299 300 305 311 312 313 315 315 315 314 312 312 311 310 310 310 308 304 303 300 295 293 294 293 292 291 291 291 291 291 291 287 286
289 288 286 289 291 293 294 294 296 297 298 298 299 304 308 308 310 311 310 310 309 307 306 305 304 304 303 301 301 298 297 296 293 292 291 290 290 290 288 286 286 286 286
281 281 283 287 289 291 292 292 293 294 295 295 296 297 301 305 306 306 306 306 307 306 302 302 303 300 298 297 295 296 295 294 291 289 288 288 287 286 285 285 285 285 285
277 278 282 286 287 289 291 291 292 293 294 295 295 295 297 298 302 304 303 302 302 301 301 301 301 297 295 293 292 293 292 291 289 287 286 286 285 285 285 285 285 285 284
274 278 281 281 284 288 290 291 292 292 294 294 295 295 296 296 294 297 299 298 297 297 298 297 295 292 292 291 290 290 290 289 288 287 286 286 286 285 285 285 284 284 283
272 273 276 280 283 284 286 290 291 292 293 294 294 295 295 296 294 295 296 295 294 293 295 292 290 290 289 289 289 288 288 288 287 286 286 285 285 285 284 283 283 283 282
269 272 272 273 276 279 284 288 290 292 292 293 293 294 295 295 296 294 295 296 293 293 292 290 289 289 288 288 287 286 286 286 286 286 285 284 284 283 283 282 282 281 281
268 269 270 271 273 276 280 286 290 291 292 292 292 293 294 294 294 294 293 293 293 292 292 289 289 288 287 287 287 286 286 285 286 285 284 283 282 282 282 281 281 281 281
268 269 270 271 273 275 280 286 289 291 291 292 291 292 293 294 294 293 293 291 290 290 291 289 288 287 286 286 286 285 283 284 284 284 284 283 282 281 281 281 280 279 278
268 270 272 273 274 277 281 285 288 290 291 291 292 290 292 293 293 293 292 291 290 289 289 288 287 287 286 286 285 283 282 282 282 282 281 281 281 281 280 279 278 277 276
270 271 272 274 275 279 282 283 288 290 290 291 290 290 290 290 291 291 291 290 290 289 288 288 287 286 285 283 282 281 281 281 281 280 280 280 279 278 277 277 276 275 274
269 270 271 272 273 274 275 277 278 282 287 288 287 286 289 289 290 290 290 289 289 287 286 283 282 281 282 282 281 281 280 278 278 278 278 277 276 275 275 275 274 273 273
268 268 269 270 271 272 272 272 273 274 274 274 275 276 278 280 279 278 278 279 279 280 281 283 282 281 281 282 281 280 278 277 277 276 276 275 274 274 273 273 272 271 271
266 266 267 268 268 269 270 270 271 271 271 271 271 271 272 272 273 274 275 277 279 280 280 281 281 280 280 280 280 279 278 277 277 276 275 274 273 272 272 271 270 269 269
264 264 265 266 266 267 267 268 268 268 269 269 269 269 269 269 270 271 271 273 275 275 276 278 278 278 277 277 277 277 276 276 276 274 274 273 272 271 270 270 269 269 268
262 262 263 264 264 264 265 265 266 266 267 267 267 267 268 268 268 269 269 270 271 273 273 273 274 274 274 274 274 274 274 273 273 272 272 271 271 270 269 269 268 267 267
260 260 261 261 262 262 263 263 264 264 264 265 265 265 266 266 266 267 267 268 269 269 269 270 270 271 271 271 271 270 270 270 270 270 270 269 269 269 268 268 267 267 266
Wind_Speed
20 18 19 23 28 33 38 39 42 42 40 40 41 43 45 44 44 42 40 38 36 37 36 37 39 37 34 34 35 33 30 28 15 14 18 18 19 17 16 15 14 13 10
21 20 20 22 25 27 31 36 39 40 41 43 42 44 46 47 46 44 42 40 38 37 37 37 38 35 37 36 33 32 31 27 25 17 17 17 19 16 14 12 10 11 7
27 22 23 22 23 27 31 33 34 38 40 42 42 41 41 42 42 42 41 38 38 38 36 36 38 36 36 33 34 31 33 34 33 20 16 15 16 13 11 8 8 8 5
35 28 26 27 27 26 28 31 34 36 38 39 42 41 41 41 42 40 40 38 35 38 39 41 42 41 40 35 36 36 35 32 30 24 14 13 11 10 10 8 7 6 2
36 33 31 32 30 30 29 30 31 33 36 38 39 40 39 41 39 40 40 39 38 39 43 45 44 43 42 40 36 35 32 29 26 22 12 8 9 9 10 8 8 5 3
32 33 35 35 36 35 32 32 31 32 33 36 37 39 38 39 41 42 41 40 42 40 36 40 42 39 35 33 31 31 30 31 28 21 15 9 14 11 12 14 11 6 3
33 35 36 36 38 37 35 33 33 34 35 36 38 38 40 41 40 41 41 40 36 37 37 37 36 32 31 29 27 26 24 24 26 26 21 21 17 20 19 17 14 9 7
29 33 38 36 36 41 40 37 34 33 34 36 38 38 39 39 40 40 39 38 39 39 39 37 35 34 31 29 26 24 21 19 19 20 20 17 15 17 18 15 15 11 6
28 29 33 37 37 36 36 37 38 34 29 33 38 39 38 40 38 36 34 35 36 36 34 34 34 33 32 29 28 25 20 17 14 12 14 16 16 17 18 17 17 15 4
33 35 35 36 36 35 35 36 37 36 35 30 35 38 40 40 38 37 34 34 35 33 30 30 31 32 31 30 30 29 26 25 23 20 19 18 18 17 17 15 16 18 9
34 35 39 36 35 36 37 37 36 35 32 30 31 37 37 37 35 33 32 35 35 32 33 31 30 28 28 31 30 32 32 30 27 25 23 22 21 19 17 15 16 16 13
40 42 39 36 34 34 34 36 29 26 26 26 26 28 36 36 34 32 34 36 36 35 34 33 30 27 29 31 31 29 30 30 30 28 26 25 24 21 18 16 14 14 13
41 40 38 35 34 33 31 30 27 24 22 23 21 21 25 30 37 36 34 35 36 32 30 30 30 28 29 29 29 29 30 33 30 25 22 22 24 23 19 15 12 10 10
38 36 34 37 37 33 30 27 26 24 24 23 22 22 23 25 27 32 35 33 32 31 27 24 26 27 29 28 26 30 31 32 30 25 22 23 23 23 20 18 16 13 11
37 35 34 31 32 34 33 32 31 32 29 28 28 26 22 24 27 32 33 32 32 31 27 25 27 25 22 23 23 26 26 27 24 23 25 24 23 22 21 18 16 15 11
35 33 33 33 33 31 32 34 31 35 36 39 41 39 32 35 28 31 37 40 35 36 27 27 28 30 28 26 25 25 27 25 22 24 25 24 21 21 23 19 18 16 14
34 34 34 34 33 31 30 29 25 29 28 31 39 41 40 38 31 31 35 36 39 38 28 29 30 31 30 30 28 28 26 29 29 26 26 25 24 25 24 22 20 16 13
35 36 34 31 32 33 31 31 29 25 19 24 23 33 37 38 35 34 37 36 31 38 30 28 28 30 30 30 29 27 26 30 32 30 29 29 28 27 24 22 20 16 14
35 33 34 33 31 33 34 34 30 28 25 25 24 20 29 34 37 37 39 36 32 33 30 29 30 30 30 30 30 28 29 28 30 32 31 31 29 27 23 21 17 14 12
31 33 33 31 30 28 27 28 28 24 24 23 20 20 19 23 23 28 34 34 27 26 25 26 27 28 29 30 29 31 32 33 32 31 31 29 27 25 24 22 19 17 13
31 31 31 28 27 26 25 23 23 21 15 13 11 12 19 23 23 23 25 24 18 19 21 24 26 29 32 34 35 34 32 30 31 30 29 26 25 24 22 20 18 15 13
31 30 30 28 29 29 27 26 24 22 21 18 18 18 14 9 11 13 16 17 18 20 23 26 26 28 30 32 34 34 33 31 30 28 27 26 24 22 21 20 18 16 14
32 31 31 31 31 31 31 29 27 26 23 23 23 22 22 19 17 16 17 17 18 18 18 22 23 23 24 26 28 30 31 30 29 28 28 27 25 24 22 21 20 17 16
31 30 29 29 30 29 29 29 29 29 28 25 25 25 24 23 21 18 17 17 16 15 14 15 17 19 20 21 22 23 22 21 22 24 24 25 24 23 21 20 19 17 15
28 29 28 28 28 28 27 26 27 27 27 27 27 26 25 26 25 21 18 15 14 14 12 11 13 14 16 17 18 18 18 19 20 21 22 21 22 22 22 21 20 17 16
27 27 26 26 26 25 25 26 25 26 27 27 26 26 26 26 25 23 20 17 14 9 5 4 6 8 10 12 13 15 16 18 19 20 20 20 21 22 21 20 19 18 17
Wind_Direction
337 316 282 270 264 258 248 240 238 239 237 236 237 236 234 229 230 227 228 229 229 230 229 228 231 232 230 231 234 236 235 235 245 249 225 225 226 224 248 256 264 272 273
327 328 315 290 276 270 262 254 245 240 242 243 239 237 234 231 229 224 225 227 226 227 227 227 230 230 232 234 233 235 234 234 239 243 223 213 223 233 235 244 258 268 269
329 316 321 315 299 285 276 269 263 256 250 249 246 239 233 229 228 227 227 228 228 229 228 228 230 230 230 231 233 231 238 243 244 232 220 217 217 220 218 234 257 264 268
349 331 314 322 319 304 291 281 274 266 259 254 251 244 240 235 230 228 229 228 229 230 230 231 234 233 233 232 233 234 242 240 237 228 214 206 204 211 216 224 231 229 196
345 341 334 325 319 315 302 293 281 275 268 262 256 251 243 239 229 228 229 230 232 235 237 238 240 241 244 243 241 241 237 231 223 213 194 191 188 194 203 204 195 195 203
339 335 336 337 333 320 310 305 292 279 271 264 260 255 248 245 244 241 240 237 237 234 232 235 240 244 246 245 245 244 239 227 214 208 200 196 204 204 195 188 180 170 165
337 337 338 339 336 331 324 309 299 287 278 269 264 261 258 256 252 251 249 242 236 236 236 242 244 237 234 228 227 229 225 224 230 228 214 218 209 210 198 185 188 170 175
330 334 335 335 329 329 325 315 307 300 283 272 267 261 257 256 253 252 249 244 242 243 243 241 238 229 224 219 213 211 213 216 222 223 223 222 217 204 198 201 186 172 154
331 330 328 327 323 321 316 312 310 301 285 274 266 264 259 256 253 251 246 243 240 240 240 237 232 229 221 213 208 199 190 192 191 196 197 194 189 184 188 182 174 161 141
327 324 322 319 314 312 311 308 305 299 290 278 269 265 263 259 255 251 246 240 234 234 230 230 229 225 217 210 209 201 181 180 182 175 167 167 174 178 183 198 192 177 138
319 320 317 312 307 308 308 308 304 294 287 278 269 267 262 259 253 247 237 229 228 225 223 218 219 218 214 210 210 206 198 193 186 182 173 169 171 178 192 190 189 188 173
319 315 314 311 307 306 305 307 299 286 274 271 266 265 260 254 249 244 235 229 231 231 223 225 222 213 206 204 202 204 203 191 183 179 172 168 172 180 184 178 177 179 190
315 312 309 307 308 306 302 299 295 284 268 264 255 256 258 252 245 239 234 228 228 230 233 234 224 207 201 198 200 198 192 184 176 169 172 176 183 184 176 179 181 180 181
309 309 309 308 304 302 299 292 284 278 271 266 256 251 251 250 237 231 227 224 227 224 224 220 208 195 189 190 180 182 185 182 178 177 174 176 176 175 180 179 176 181 182
311 308 306 305 304 302 295 288 279 272 266 268 264 259 251 246 237 229 218 207 204 204 199 187 172 174 172 176 175 175 180 180 177 175 167 166 169 174 176 179 183 183 189
308 308 306 304 302 297 293 291 279 271 270 266 265 259 260 253 249 237 223 218 201 198 181 178 178 176 177 178 176 169 175 178 178 173 166 167 168 174 177 182 189 195 187
305 303 302 301 299 295 292 286 288 288 274 266 260 257 255 252 245 231 217 207 203 191 194 188 184 184 179 177 178 178 175 175 178 176 171 171 175 181 181 184 190 191 178
307 304 300 296 295 294 291 289 285 282 282 281 270 256 253 244 232 223 214 199 192 195 197 191 187 184 179 177 176 176 169 172 172 177 179 179 182 182 181 183 187 187 185
315 309 307 302 298 292 291 292 281 281 277 277 277 256 248 236 227 220 207 199 200 198 194 191 187 185 180 177 173 169 167 168 172 174 179 180 181 183 186 190 186 187 185
327 324 323 318 316 315 309 307 294 277 277 273 265 250 245 226 220 213 207 206 207 204 193 184 176 173 168 163 161 164 165 173 177 180 180 182 183 186 187 184 186 184 187
338 336 338 341 340 338 338 336 334 335 313 298 298 280 244 220 226 216 209 207 200 187 175 162 157 156 160 164 167 169 171 174 180 183 184 183 182 182 186 186 183 184 184
345 348 352 355 356 356 354 356 357 359 4 10 9 19 30 99 104 110 115 116 125 136 148 160 162 167 172 174 175 172 172 177 184 185 186 186 185 184 182 181 180 180 182
352 353 358 3 5 4 4 7 11 11 11 14 16 20 29 42 70 88 102 116 132 143 154 161 161 160 169 175 178 180 181 184 187 190 190 188 187 187 185 184 183 180 184
356 358 358 3 5 9 8 7 9 14 16 16 21 24 27 37 52 64 76 90 99 109 124 137 152 161 166 172 178 184 187 190 196 197 197 193 190 188 186 185 186 186 186
356 360 0 3 3 2 3 9 9 9 13 17 16 19 24 33 38 44 51 62 80 89 101 129 148 162 170 175 180 185 190 194 195 196 195 197 195 192 191 190 188 186 187
359 0 0 3 1 0 1 3 9 10 9 9 13 17 18 21 24 27 29 33 41 52 76 116 155 176 186 190 191 193 194 195 195 195 194 196 195 194 195 196 193 193 192